User: anonymous   Login
Location: Unspecified
(0.0000°N, 0.0000°E)
Time: 22:16:57
(UTC+00:00)
Language:

STARLINK-5759 - Orbit

View from above orbital plane
View from above orbital plane
View from above satellite
View from above satellite

Ground track
Ground track

The orbit is defined by the following mean orbital elements,

1 55592U          26145.43537903 +.00000000 +00000-0 +14348-4 0 00005
2 55592  43.0024 291.4751 0000954 269.4765  90.5978 15.27575315    06
Epoch (UTC): 25 May 2026 10:26:56
Eccentricity: 0.0000954
inclination: 43.0024°
perigee height: 482 km
apogee height: 484 km
right ascension of ascending node: 291.4751°
argument of perigee: 269.4765°
revolutions per day: 15.27575315
mean anomaly at epoch: 90.5978°

The dashed part of the orbit path shows where the satellite is in the earth's shadow,  

DLR